This is the latest recevied weather packets stored in our database for station/object VR2OT-10. If no packets are shown the sender has not sent any weather packets the latest 10 day(s).
| Time | Temp. | Humidity | Pressure | Rain* | Wind** | Luminosity | Snow |
|---|---|---|---|---|---|---|---|
| 1777965438 | 20° C | 90% | 1012.9 hPa | - | 2.68 m/s, 90° | - | - |
| 1777964537 | 20° C | 91% | 1013.2 hPa | - | 2.68 m/s, 90° | - | - |
| 1777963637 | 20° C | 92% | 1013.3 hPa | - | 2.68 m/s, 135° | - | - |
| 1777962738 | 20° C | 92% | 1013.4 hPa | - | 2.68 m/s, 90° | - | - |
| 1777961837 | 20° C | 92% | 1013.5 hPa | - | 3.13 m/s, 135° | - | - |
| 1777960939 | 20° C | 93% | 1013.7 hPa | - | 3.13 m/s, 135° | - | - |
| 1777960038 | 19.44° C | 94% | 1013.9 hPa | - | 4.02 m/s, 135° | - | - |
| 1777959137 | 19.44° C | 92% | 1014.4 hPa | - | 3.13 m/s, 90° | - | - |
| 1777958237 | 19.44° C | 91% | 1014.4 hPa | - | 3.13 m/s, 90° | - | - |
| 1777957339 | 19.44° C | 90% | 1014.5 hPa | - | 4.02 m/s, 135° | - | - |
| 1777956439 | 19.44° C | 91% | 1014.6 hPa | - | 3.58 m/s, 90° | - | - |
| 1777954638 | 19.44° C | 91% | 1014.9 hPa | - | 4.47 m/s, 135° | - | - |
| 1777953738 | 19.44° C | 92% | 1015.2 hPa | - | 4.02 m/s, 90° | - | - |
| 1777952838 | 19.44° C | 91% | 1015.3 hPa | - | 4.02 m/s, 90° | - | - |
| 1777951939 | 18.89° C | 93% | 1015.4 hPa | - | 4.02 m/s, 135° | - | - |
| 1777951037 | 18.89° C | 92% | 1015.4 hPa | - | 3.58 m/s, 135° | - | - |
| 1777950139 | 18.89° C | 92% | 1015.7 hPa | - | 2.68 m/s, 135° | - | - |
| 1777949238 | 18.89° C | 92% | 1015.8 hPa | - | 2.68 m/s, 135° | - | - |
| 1777947438 | 18.89° C | 91% | 1015.6 hPa | - | 4.02 m/s, 135° | - | - |
| 1777946539 | 18.33° C | 91% | 1015.7 hPa | - | 3.58 m/s, 135° | - | - |
| 1777945638 | 18.89° C | 92% | 1015.8 hPa | - | 3.58 m/s, 135° | - | - |
| 1777944739 | 18.33° C | 93% | 1015.8 hPa | - | 3.58 m/s, 90° | - | - |
| 1777943838 | 18.33° C | 93% | 1015.7 hPa | - | 3.58 m/s, 135° | - | - |
| 1777942937 | 18.33° C | 91% | 1015.6 hPa | - | 4.47 m/s, 135° | - | - |
| 1777941138 | 18.89° C | 91% | 1015.3 hPa | - | 4.92 m/s, 90° | - | - |
* Rain since midnight (hover to see other rain measurements)
** Current wind speed in m/s (hover to see current wind gust speed)